This demonstration page uses our WeatherBlox Daily Observations layout. Learn more.

Left ArrowRight Arrow

38.89511, -77.03637

Hourly Observations for June 13, 2022

Temp ( °F °C ) Dew Point ( °F °C ) Humidity (%) Winds ( mph kmh ) Pressure ( in mb ) Visibility ( mi km ) Precip ( " mm )
12:52 am 00:52 Cloudy 75 23.9 70 21.1 84 84 SSW 6 9 29.92 1013 10 16 0.00 0.00
1:52 am 01:52 Cloudy 75 23.9 70 21.1 84 84 SSW 5 7 29.93 1014 10 16 0.00 0.00
2:52 am 02:52 Cloudy 75 23.9 70 21.1 84 84 Calm 29.92 1013 10 16 0.00 0.00
3:52 am 03:52 Mostly Cloudy 75 23.9 69 20.6 82 82 SSW 6 9 29.91 1013 10 16 0.00 0.00
4:52 am 04:52 Mostly Clear 73 22.8 68 20 84 84 SSW 6 9 29.90 1013 10 16 0.00 0.00
5:52 am 05:52 Mostly Cloudy 72 22.2 68 20 87 87 S 5 7 29.92 1013 10 16 0.00 0.00
6:52 am 06:52 Partly Cloudy 74 23.3 68 20 82 82 S 5 7 29.93 1014 10 16 0.00 0.00
7:52 am 07:52 Mostly Cloudy 76 24.4 68 20 77 77 WNW 6 9 29.96 1014 10 16 0.00 0.00
8:52 am 08:52 Mostly Cloudy 78 25.6 69 20.6 74 74 E 3 6 29.95 1014 10 16 0.00 0.00
9:52 am 09:52 Mostly Sunny 81 27.2 69 20.6 67 67 ESE 3 6 29.96 1015 10 16 0.00 0.00
10:52 am 10:52 Mostly Sunny 84 28.9 67 19.4 57 57 SE 5 7 29.96 1015 10 16 0.00 0.00
11:52 am 11:52 Mostly Sunny 86 30 66 18.9 51 51 ESE 5 7 29.95 1014 10 16 0.00 0.00
12:52 pm 12:52 Partly Cloudy 88 31.1 67 19.4 50 50 SE 7 11 29.94 1014 10 16 0.00 0.00
1:52 pm 13:52 Partly Cloudy 89 31.7 70 21.1 53 53 SSE 9 15 29.93 1014 10 16 0.00 0.00
2:52 pm 14:52 Partly Cloudy 91 32.8 68 20 47 47 VRB 3 6 29.91 1013 10 16 0.00 0.00
3:52 pm 15:52 Mostly Cloudy 92 33.3 66 18.9 43 43 Calm 29.90 1013 10 16 0.00 0.00
4:52 pm 16:52 Mostly Cloudy 89 31.7 69 20.6 52 52 S 8 13 29.89 1012 10 16 0.00 0.00
5:52 pm 17:52 Mostly Cloudy 88 31.1 70 21.1 55 55 S 10 17 29.89 1012 10 16 0.00 0.00
6:52 pm 18:52 Mostly Cloudy 89 31.7 69 20.6 52 52 SSW 7 11 29.88 1012 10 16 0.00 0.00
7:11 pm 19:11 Mostly Cloudy with Light Rain 88 31.1 69 20.6 54 54 S 8 13 29.88 1012 10 16 0.00 0.00
7:38 pm 19:38 Mostly Cloudy with Nearby Thunderstorms 81 27.2 72 22.2 74 74 E 5 7 29.90 1012 10 16 0.00 0.00
7:52 pm 19:52 Mostly Cloudy with Light Rain 83 28.3 72 22.2 70 70 Calm 29.90 1013 9 14 0.00 0.00
8:52 pm 20:52 Mostly Cloudy 82 27.8 73 22.8 74 74 W 9 15 29.91 1013 10 16 0.01 0.25
9:06 pm 21:06 Mostly Cloudy with Nearby Thunderstorms 82 27.8 73 22.8 74 74 W 5 7 29.92 1013 10 16 0.00 0.00
9:19 pm 21:19 Mostly Cloudy 81 27.2 74 23.3 79 79 undefined N/A 29.93 1013 10 16 0.00 0.00
9:52 pm 21:52 Mostly Cloudy 80 26.7 73 22.8 79 79 VRB 5 7 29.93 1014 10 16 0.00 0.00
10:52 pm 22:52 Cloudy 79 26.1 73 22.8 82 82 S 5 7 29.92 1013 10 16 0.00 0.00
11:52 pm 23:52 Mostly Cloudy 79 26.1 73 22.8 82 82 SW 3 6 29.92 1013 10 16 0.00 0.00

Powered by AerisWeather